Temp
37 38 39 40 41 43 44 45 45 46 44 45 44 44 45 46 46 48 49 50 53 47 48 52 46 47 47 47 48 50 53 54 52 34 36 36 34 36 37 39 41 42 43
36 37 37 39 39 40 41 42 43 42 42 42 43 42 42 43 44 44 43 43 44 43 43 43 43 43 41 42 43 42 43 43 43 34 32 32 32 33 34 35 36 37 40
34 35 35 35 36 37 38 40 41 40 40 40 40 39 40 40 40 40 40 39 38 39 39 40 41 41 39 40 40 39 39 40 39 36 31 32 32 33 33 33 32 32 34
33 33 32 33 34 35 36 37 38 38 38 38 38 37 37 38 38 38 37 36 35 35 36 36 37 39 39 39 38 38 38 36 36 34 33 32 32 32 32 32 31 32 31
30 30 31 32 33 34 34 35 35 35 35 36 35 35 36 36 37 36 36 35 34 33 34 35 35 35 37 39 39 38 38 35 34 33 32 32 32 32 32 32 30 30 29
28 28 30 31 32 32 32 33 33 33 34 34 33 33 32 33 35 36 36 34 35 34 32 32 34 35 37 38 38 39 39 36 33 33 33 32 32 32 33 32 30 29 28
28 28 28 29 29 30 31 32 31 32 33 32 32 32 32 33 37 37 36 35 34 33 33 33 33 33 32 32 35 35 35 37 37 33 33 32 31 32 32 31 31 31 29
26 27 29 29 29 30 30 30 30 31 30 31 31 32 32 35 37 37 35 34 33 32 32 32 32 32 33 31 31 30 31 31 31 31 30 29 31 32 33 33 32 28 27
25 26 28 29 29 29 29 29 30 30 30 30 31 31 32 32 36 36 34 33 31 31 31 31 31 32 36 35 30 28 28 29 34 35 35 35 35 35 33 28 22 22 18
25 26 27 29 29 29 30 30 30 31 31 31 31 32 31 31 35 36 34 32 30 30 30 32 33 32 35 34 29 28 25 26 28 27 27 28 28 28 29 26 25 19 18
26 27 28 29 30 30 30 30 30 30 30 29 30 31 31 32 34 36 35 31 30 30 29 30 31 33 33 33 32 28 27 27 27 25 24 24 23 23 22 23 24 22 18
24 26 27 28 30 30 30 30 30 29 28 27 28 29 30 32 34 35 35 34 34 30 29 29 30 32 32 31 30 32 31 26 20 20 19 19 18 19 19 18 18 18 19
23 24 26 27 28 29 28 29 29 29 28 27 27 26 26 28 30 33 35 34 34 30 30 31 30 28 27 27 28 26 20 19 18 17 17 18 19 17 16 15 15 13 12
19 22 25 27 27 27 28 27 27 27 26 26 26 24 23 23 24 26 27 26 31 29 28 27 27 27 26 22 19 19 19 18 16 15 16 18 17 14 11 12 9 10 7
17 20 24 27 26 25 26 25 25 27 27 23 22 22 18 16 23 27 27 25 25 28 21 25 23 22 15 15 13 12 13 13 13 11 10 10 11 11 10 7 6 3 5
17 17 21 24 25 25 23 23 29 29 29 29 29 25 22 27 28 28 27 27 26 28 23 17 16 14 13 12 11 10 9 7 9 9 6 6 6 5 4 5 5 1 0
12 16 14 20 25 25 23 19 13 21 26 26 27 27 26 26 26 26 25 25 26 22 14 13 12 12 11 9 7 6 4 5 2 3 3 2 2 2 1 1 2 0 -0
5 8 10 11 12 14 23 24 22 20 17 9 19 23 24 24 24 23 23 16 6 10 8 6 5 4 5 4 3 2 2 1 0 -0 -1 -3 -4 -4 -4 -4 -3 -6 -7
8 8 8 9 10 11 12 15 18 8 4 3 4 12 10 20 20 20 18 2 2 1 -2 0 -2 -2 -1 -2 -2 -4 -5 -5 -6 -7 -7 -7 -8 -8 -9 -8 -7 -5 -8
2 6 4 7 7 9 9 9 7 5 4 2 -1 -1 0 2 -2 -2 1 -1 -2 -5 -5 -6 -7 -8 -8 -8 -8 -8 -8 -9 -9 -9 -9 -9 -9 -9 -9 -10 -10 -9 -11
4 2 4 4 5 5 6 6 6 4 2 1 0 4 13 -2 -5 -6 -6 -7 -8 -8 -8 -8 -8 -10 -10 -10 -10 -10 -10 -8 -9 -9 -10 -10 -11 -10 -11 -9 -10 -11 -10
3 3 2 2 3 4 3 4 4 3 1 0 1 3 14 -2 -5 -6 -7 -8 -10 -11 -11 -11 -11 -11 -11 -11 -11 -12 -12 -11 -12 -12 -11 -11 -11 -11 -12 -10 -10 -10 -10
2 2 1 0 0 -1 0 -0 1 1 -0 -2 -2 -3 -4 -6 -7 -7 -8 -10 -11 -11 -12 -12 -12 -12 -13 -13 -13 -12 -12 -9 -8 -12 -12 -13 -12 -11 -14 -10 -10 -11 -11
3 3 3 -1 -1 -1 -1 -2 -3 -1 -3 -4 -4 -4 -5 -7 -8 -8 -9 -10 -11 -11 -12 -11 -11 -9 -9 -8 -11 -11 -8 -7 -9 -7 -10 -11 -9 -10 -14 -12 -9 -7 -7
-1 -0 1 1 -4 -3 -4 -3 -3 -5 -5 -4 -5 -6 -8 -8 -9 -9 -9 -10 -10 -11 -9 -9 -8 -8 -6 -7 -8 -9 -7 1 -4 -7 -10 -14 -10 -12 -13 -11 -10 -13 -16
-1 -2 -2 -2 -3 -4 -4 -3 -4 -3 -4 -4 -5 -7 -8 -9 -9 -9 -9 -10 -10 -9 -8 -9 -7 -6 -6 -5 -6 -3 -3 3 -0 -4 -7 -10 -9 -8 -8 -9 -11 -10 -9
MSLP
1010.13 1009.61 1009.02 1008.57 1008.01 1007.90 1007.57 1007.18 1006.90 1006.80 1006.72 1006.80 1006.45 1006.57 1006.27 1005.15 1005.10 1004.46 1004.51 1005.24 1005.92 1006.86 1007.45 1007.85 1008.39 1008.82 1009.06 1009.50 1009.91 1009.85 1010.41 1011.01 1012.23 1014.74 1015.49 1015.97 1016.22 1016.42 1016.44 1016.16 1016.19 1015.97 1016.58
1010.31 1009.72 1009.20 1008.65 1008.29 1008.00 1007.66 1007.33 1007.14 1007.06 1007.06 1006.93 1006.34 1006.60 1006.54 1006.05 1005.65 1005.14 1005.22 1005.86 1006.92 1007.79 1008.15 1008.72 1008.89 1009.30 1010.15 1010.02 1010.49 1010.68 1011.18 1011.54 1012.22 1014.16 1015.75 1016.40 1016.96 1017.52 1017.32 1016.76 1017.07 1017.21 1017.21
1010.69 1009.98 1009.37 1008.86 1008.44 1008.12 1007.82 1007.39 1007.17 1007.36 1007.31 1006.87 1006.51 1006.81 1006.83 1006.27 1005.91 1006.39 1006.53 1007.35 1008.31 1008.83 1008.93 1009.95 1009.58 1009.72 1010.23 1010.86 1011.41 1011.60 1011.73 1012.03 1012.76 1013.65 1015.30 1016.32 1017.05 1017.57 1018.14 1018.44 1018.08 1018.52 1018.50
1010.89 1010.34 1009.85 1009.34 1008.83 1008.34 1007.99 1007.55 1007.34 1007.68 1007.66 1007.14 1006.88 1007.20 1007.08 1006.79 1007.11 1007.81 1006.93 1007.70 1008.88 1010.30 1010.18 1010.88 1010.68 1010.35 1010.69 1011.77 1012.22 1012.47 1012.63 1012.66 1013.52 1013.93 1015.10 1016.29 1017.20 1017.79 1018.05 1018.70 1019.18 1019.18 1019.52
1011.08 1010.39 1009.88 1009.34 1008.87 1008.51 1008.15 1007.91 1007.95 1008.17 1008.32 1007.52 1008.05 1007.93 1007.86 1007.74 1008.19 1008.18 1008.41 1008.06 1009.58 1010.46 1011.08 1011.45 1011.92 1011.30 1012.05 1012.66 1012.71 1013.20 1013.24 1013.44 1013.80 1014.54 1015.78 1016.83 1017.52 1017.83 1018.18 1018.65 1019.52 1019.91 1020.24
1011.53 1010.85 1010.25 1009.74 1009.41 1009.08 1009.00 1008.81 1008.72 1008.94 1008.76 1008.43 1008.95 1008.76 1008.95 1008.71 1009.43 1009.56 1008.98 1009.19 1010.50 1010.84 1011.92 1012.12 1012.69 1013.14 1013.34 1013.78 1013.80 1013.83 1013.90 1014.08 1014.52 1015.08 1016.32 1016.94 1017.67 1017.97 1018.47 1018.98 1019.87 1020.13 1020.31
1012.35 1011.69 1011.14 1010.74 1010.43 1010.16 1009.99 1009.78 1009.93 1010.02 1009.61 1009.31 1010.04 1010.06 1009.87 1010.21 1010.34 1009.67 1009.43 1009.85 1010.11 1012.15 1012.46 1013.44 1014.14 1014.86 1014.63 1014.91 1015.07 1015.23 1014.91 1015.14 1015.26 1015.50 1016.70 1017.19 1017.83 1017.99 1018.26 1019.43 1019.41 1019.71 1020.23
1013.14 1012.40 1011.85 1011.40 1011.30 1011.06 1010.88 1010.84 1010.81 1010.67 1010.19 1010.61 1011.15 1010.93 1010.91 1012.02 1011.34 1010.46 1010.52 1011.07 1011.82 1013.32 1013.65 1015.18 1015.43 1015.54 1015.55 1015.63 1015.83 1016.26 1016.67 1016.66 1017.07 1017.34 1017.61 1018.22 1018.13 1018.54 1018.48 1018.88 1019.26 1019.76 1020.80
1014.23 1013.62 1012.97 1012.60 1012.26 1011.92 1011.61 1011.30 1011.25 1011.35 1011.74 1012.33 1012.01 1012.15 1012.33 1013.09 1012.31 1011.57 1012.15 1013.12 1013.46 1014.58 1015.37 1015.54 1015.41 1015.79 1016.42 1016.54 1017.07 1017.06 1017.81 1018.43 1018.64 1018.16 1018.62 1018.50 1019.10 1019.10 1018.86 1019.18 1020.39 1020.44 1021.54
1015.39 1014.71 1013.85 1013.36 1012.86 1012.47 1012.07 1012.29 1012.60 1012.76 1013.15 1013.43 1013.79 1013.91 1013.96 1013.39 1013.01 1012.37 1012.60 1013.85 1014.91 1015.73 1016.38 1016.88 1016.98 1017.20 1016.95 1017.20 1017.47 1017.48 1018.26 1019.08 1019.46 1019.68 1019.12 1019.36 1019.98 1020.19 1020.16 1020.48 1020.72 1020.66 1021.51
1016.66 1015.76 1015.07 1014.23 1013.81 1013.46 1013.24 1013.39 1013.81 1014.19 1014.26 1014.43 1014.72 1014.84 1014.66 1014.51 1014.16 1014.46 1015.03 1015.30 1016.27 1016.73 1017.14 1018.11 1018.43 1017.79 1017.64 1018.17 1018.32 1018.90 1019.50 1019.72 1019.89 1020.19 1020.23 1020.82 1021.03 1020.97 1021.21 1021.31 1021.19 1021.25 1021.49
1017.48 1016.72 1016.15 1015.74 1015.27 1015.02 1014.93 1015.07 1014.84 1014.74 1014.96 1015.75 1016.18 1016.20 1016.27 1016.28 1016.08 1016.20 1016.13 1016.54 1017.32 1017.88 1018.50 1018.64 1018.63 1018.28 1018.58 1019.51 1019.63 1019.90 1020.36 1020.53 1020.81 1020.88 1021.30 1021.69 1021.88 1022.10 1022.56 1022.42 1022.09 1022.28 1022.30
1017.96 1017.45 1016.91 1016.44 1016.25 1016.16 1016.10 1016.20 1016.32 1016.60 1016.88 1017.17 1017.40 1017.71 1017.90 1017.81 1017.46 1017.27 1017.36 1017.49 1017.87 1018.45 1019.07 1019.18 1018.67 1019.20 1019.84 1021.01 1020.85 1020.46 1020.84 1021.58 1021.52 1021.80 1022.17 1022.25 1022.84 1023.01 1023.10 1022.84 1022.71 1022.98 1023.16
1018.45 1017.94 1017.56 1017.26 1017.10 1016.95 1017.02 1017.25 1017.42 1017.60 1017.81 1018.03 1018.29 1018.77 1018.96 1019.10 1019.13 1018.88 1018.90 1019.11 1019.04 1018.80 1018.81 1019.49 1019.67 1020.34 1020.89 1021.99 1021.86 1021.56 1022.13 1023.01 1023.35 1022.87 1022.92 1023.18 1023.36 1023.26 1023.52 1023.33 1023.50 1023.45 1023.73
1018.99 1018.63 1018.28 1018.13 1018.07 1018.11 1018.14 1018.45 1018.64 1018.75 1018.89 1019.27 1019.60 1019.82 1019.67 1019.62 1019.54 1019.42 1019.55 1019.40 1019.55 1019.44 1019.98 1020.19 1020.84 1021.61 1022.15 1022.32 1022.64 1023.13 1023.92 1024.02 1023.75 1023.59 1023.71 1023.80 1023.70 1023.93 1024.21 1024.10 1024.24 1024.41 1024.48
1019.96 1019.70 1019.27 1018.89 1018.80 1018.90 1019.08 1019.30 1019.33 1019.44 1019.56 1019.71 1020.00 1020.33 1020.43 1020.06 1019.71 1019.91 1020.20 1020.37 1020.08 1019.84 1020.14 1021.23 1022.35 1022.85 1023.20 1023.62 1024.02 1024.61 1024.71 1024.50 1024.24 1024.09 1024.25 1024.45 1024.89 1024.97 1025.09 1024.96 1024.98 1025.28 1025.32
1021.00 1020.73 1020.43 1020.14 1019.88 1019.77 1019.85 1020.07 1020.52 1020.63 1020.73 1020.96 1020.92 1020.78 1020.62 1020.31 1020.41 1020.31 1020.61 1020.53 1020.49 1020.82 1021.96 1022.61 1023.20 1023.53 1023.73 1024.16 1024.58 1024.94 1025.32 1025.06 1024.86 1024.90 1025.03 1025.26 1025.38 1025.49 1025.81 1025.81 1025.80 1025.87 1025.87
1021.60 1021.29 1021.16 1021.00 1020.87 1020.76 1020.67 1020.71 1020.83 1021.11 1021.59 1022.22 1022.20 1022.06 1021.93 1021.91 1021.85 1021.85 1021.84 1021.92 1022.57 1022.68 1023.03 1023.71 1024.30 1024.70 1025.20 1025.66 1025.84 1025.97 1025.78 1025.69 1025.75 1025.79 1025.92 1026.10 1026.20 1026.53 1026.66 1026.61 1026.60 1026.61 1026.59
1021.57 1021.47 1021.31 1021.27 1021.29 1021.43 1021.59 1021.69 1021.99 1022.36 1022.69 1023.04 1023.16 1023.04 1022.94 1022.76 1022.68 1022.56 1022.65 1023.22 1023.88 1024.42 1025.06 1025.54 1025.76 1026.08 1026.33 1026.46 1026.51 1026.51 1026.49 1026.56 1026.62 1026.68 1026.78 1026.80 1026.78 1026.90 1027.22 1027.16 1027.14 1027.15 1027.08
1021.94 1021.88 1021.96 1022.04 1022.25 1022.26 1022.26 1022.34 1022.57 1022.85 1023.12 1023.36 1023.54 1023.81 1023.53 1023.55 1024.18 1024.48 1024.39 1024.69 1025.25 1025.73 1025.95 1026.32 1026.54 1026.72 1026.81 1026.83 1026.80 1026.79 1026.75 1026.76 1026.76 1026.80 1026.83 1026.79 1026.75 1026.71 1027.20 1027.21 1027.17 1027.29 1027.25
1021.72 1022.05 1022.04 1022.19 1022.42 1022.45 1022.50 1022.63 1022.87 1023.17 1023.55 1023.93 1024.18 1023.93 1023.98 1024.72 1025.15 1025.46 1025.60 1025.71 1025.97 1026.16 1026.31 1026.47 1026.62 1026.68 1026.70 1026.69 1026.77 1026.76 1026.67 1026.64 1026.61 1026.61 1026.61 1026.60 1026.63 1026.83 1026.61 1026.63 1026.74 1026.84 1027.16
1021.26 1021.73 1022.10 1022.34 1022.48 1022.68 1022.86 1023.08 1023.39 1023.73 1024.12 1024.49 1024.79 1024.45 1024.58 1024.94 1025.30 1025.61 1025.81 1026.11 1026.47 1026.41 1026.45 1026.52 1026.79 1026.66 1026.64 1026.56 1026.78 1026.64 1026.56 1026.44 1026.34 1026.42 1026.50 1026.51 1026.47 1026.43 1026.44 1026.45 1026.50 1026.57 1026.80
1021.24 1021.93 1022.28 1022.57 1022.83 1023.11 1023.35 1023.57 1023.81 1024.13 1024.48 1024.85 1025.07 1025.38 1025.24 1025.50 1025.63 1025.78 1026.02 1026.31 1026.36 1026.27 1026.23 1026.34 1026.51 1026.47 1026.22 1026.12 1026.06 1026.17 1026.10 1025.93 1025.92 1026.16 1026.43 1026.25 1026.18 1026.11 1026.11 1026.25 1026.23 1026.36 1026.18
1021.16 1021.73 1022.25 1022.55 1022.83 1023.11 1023.39 1023.70 1024.02 1024.38 1024.77 1025.13 1025.18 1025.17 1025.24 1025.35 1025.52 1025.68 1025.92 1026.16 1025.99 1025.93 1025.81 1025.81 1025.89 1025.86 1025.76 1025.56 1025.43 1025.29 1025.21 1025.07 1025.14 1025.20 1025.43 1025.73 1025.65 1025.57 1025.54 1025.56 1025.50 1025.32 1025.44
1020.99 1021.79 1022.21 1022.54 1022.88 1023.18 1023.48 1023.79 1024.10 1024.42 1024.78 1024.84 1025.10 1025.03 1025.10 1025.25 1025.41 1025.51 1025.62 1025.33 1025.37 1025.44 1025.34 1025.27 1025.18 1025.08 1024.93 1024.80 1024.74 1024.64 1024.43 1024.19 1024.13 1024.16 1024.44 1024.82 1024.81 1024.67 1024.64 1024.64 1024.57 1024.53 1024.59
1020.88 1021.36 1022.01 1022.26 1022.87 1023.13 1023.39 1023.65 1023.89 1024.19 1024.48 1024.44 1024.51 1024.64 1024.80 1024.96 1025.07 1025.21 1025.38 1025.25 1025.22 1024.97 1024.73 1024.59 1024.42 1024.31 1024.18 1024.00 1023.77 1023.59 1023.44 1023.22 1023.12 1023.06 1023.24 1023.62 1023.69 1023.51 1023.47 1023.41 1023.40 1023.47 1023.45
Wind_Speed
8 8 7 7 6 6 5 5 4 5 4 1 2 3 5 4 4 4 7 5 6 5 4 5 6 4 3 4 2 2 4 6 6 2 2 2 4 4 5 7 7 9 9
9 8 7 6 6 5 5 4 3 4 3 1 5 3 3 3 5 6 10 11 10 8 8 7 7 6 5 5 3 4 3 4 2 5 2 3 6 5 5 9 7 7 7
9 8 6 6 6 5 5 4 3 3 3 3 6 5 5 6 9 7 12 12 12 11 9 6 7 8 7 5 4 4 3 4 3 4 4 2 3 3 6 6 7 7 8
8 6 5 5 4 4 3 4 5 4 4 6 9 8 8 9 10 4 14 15 15 11 11 10 9 10 10 7 6 6 5 7 7 8 7 5 3 3 3 4 5 4 4
8 6 5 5 4 4 5 5 7 7 4 10 8 10 9 9 6 8 11 17 14 13 13 13 12 16 19 11 5 5 6 7 7 8 6 4 3 3 4 2 3 2 3
9 8 8 7 7 7 6 7 9 8 8 12 10 11 9 9 16 17 13 16 12 14 13 12 11 13 17 20 22 23 11 7 8 6 5 7 4 3 3 3 4 1 3
10 9 9 8 9 9 8 10 10 9 10 14 10 12 13 11 18 21 20 14 16 13 12 10 10 7 9 10 18 21 21 23 14 6 8 4 4 2 5 4 3 2 2
13 12 10 10 10 10 11 12 12 11 13 11 11 12 13 10 20 23 24 16 17 15 14 10 10 9 11 10 12 14 15 14 11 8 9 6 6 4 4 2 3 6 4
14 13 11 10 10 11 13 14 14 14 13 10 11 13 12 9 21 24 18 13 16 16 12 11 11 11 15 15 11 13 12 11 16 22 20 20 18 15 8 3 3 3 2
13 12 12 11 11 13 15 15 12 12 12 10 12 11 12 12 22 22 18 10 13 10 11 12 20 13 18 16 9 9 10 7 6 6 7 12 13 13 17 8 3 3 3
10 10 10 11 12 13 14 13 11 10 11 12 12 12 14 15 18 22 20 10 8 9 10 8 8 20 21 19 16 9 6 5 8 6 7 6 6 7 7 7 7 4 2
7 8 8 9 9 8 11 9 9 10 12 10 9 10 10 12 18 21 22 18 14 9 8 7 10 20 20 18 12 14 13 8 4 5 5 5 5 5 4 4 5 6 6
6 8 8 9 9 10 10 8 7 8 7 7 7 6 7 7 8 18 19 17 15 10 7 12 17 17 17 12 16 16 11 5 4 5 5 5 3 1 3 2 4 6 5
6 7 6 8 8 9 8 8 8 7 6 6 6 6 5 6 6 6 6 5 9 8 11 8 12 13 14 10 7 10 6 5 3 4 3 4 3 3 3 3 3 3 3
5 5 6 6 8 8 8 7 7 8 8 6 6 6 5 5 6 6 6 5 5 7 6 4 4 5 5 5 5 5 5 4 5 3 4 3 4 4 2 3 2 3 3
5 4 4 3 3 4 5 6 16 15 16 16 14 7 4 9 9 10 11 5 3 6 4 5 4 4 4 3 3 4 4 4 3 4 4 3 2 3 2 3 2 2 2
3 3 2 3 3 3 3 4 3 5 14 13 12 13 14 12 11 9 10 14 11 8 5 5 5 4 4 4 3 3 1 1 2 3 3 3 2 2 2 2 2 2 2
1 3 2 2 2 2 2 2 2 2 2 3 8 8 11 12 11 6 9 9 5 7 5 5 4 4 3 3 3 2 3 3 3 3 3 2 3 2 2 2 2 1 1
4 3 3 3 3 3 3 3 3 3 3 2 1 4 6 8 12 14 15 5 4 5 4 5 3 3 2 2 1 1 1 1 0 1 1 1 0 2 1 1 1 0 2
2 3 1 1 1 1 2 3 3 3 2 2 3 0 3 4 4 4 4 4 4 3 3 3 2 2 2 2 2 2 1 1 1 1 1 1 1 1 1 1 1 1 2
3 3 3 1 2 2 2 3 3 3 3 3 1 2 5 4 3 2 2 3 3 2 2 2 1 1 1 1 0 1 0 2 1 1 1 2 1 1 2 2 2 3 3
3 3 2 3 2 2 2 3 3 3 3 3 1 3 6 3 3 2 2 2 2 2 2 2 1 1 2 2 1 0 1 3 3 2 3 3 3 3 2 2 3 3 3
3 4 3 2 3 4 2 2 3 3 3 3 3 3 1 2 2 2 3 2 2 2 1 2 1 3 2 3 3 4 4 4 4 3 3 3 3 4 3 4 3 3 3
4 4 4 3 3 3 3 3 3 3 3 3 3 3 3 3 2 3 2 2 2 2 3 3 3 5 4 4 3 3 4 5 4 5 6 4 5 5 3 4 5 7 5
4 4 4 4 3 3 3 3 3 3 3 3 3 3 3 3 2 3 3 3 3 3 4 3 3 5 8 8 7 8 8 11 7 6 5 5 7 7 5 5 6 5 4
4 4 4 3 3 3 3 3 3 3 4 3 3 3 3 3 3 3 3 3 3 3 4 3 5 9 9 8 9 10 10 13 11 10 7 6 7 7 6 8 8 6 6
Wind_Direction
330 320 320 320 335 322 296 297 327 326 335 71 62 322 306 26 22 43 92 97 156 94 35 165 87 58 69 82 50 85 195 199 209 87 89 67 57 80 59 64 58 79 78
325 318 317 325 332 316 315 330 347 333 347 10 71 3 29 69 69 76 78 82 80 84 73 75 110 98 78 75 75 84 62 16 99 131 107 74 61 10 38 81 66 53 75
326 327 335 334 329 325 332 341 6 12 25 47 78 41 45 60 55 70 100 94 90 87 67 70 72 94 83 66 59 85 94 82 77 127 117 98 99 63 70 42 54 56 45
335 341 347 340 330 349 353 25 51 53 55 64 53 55 47 64 70 77 96 95 84 83 72 65 61 70 74 72 81 74 86 89 91 101 100 104 93 88 95 106 77 58 78
347 357 358 351 12 32 37 51 63 64 68 75 64 59 51 63 71 92 94 86 90 85 80 70 64 64 67 62 83 83 90 99 103 105 105 111 115 132 137 114 97 104 50
351 359 4 13 26 39 41 58 66 59 71 80 67 68 62 66 88 98 104 92 95 77 79 68 60 63 70 69 67 64 68 100 102 108 123 125 97 105 110 116 131 150 116
7 14 22 32 42 46 54 65 63 61 70 75 69 74 71 72 92 91 89 92 81 71 68 65 66 53 55 67 66 62 56 60 65 89 106 87 111 146 120 132 160 108 98
11 14 27 43 52 55 60 65 67 62 59 61 64 68 73 73 76 77 76 77 79 72 69 66 73 69 66 73 75 68 64 58 54 64 71 72 73 47 95 149 118 104 80
12 15 18 38 56 61 64 60 57 60 59 56 51 56 64 63 70 72 79 79 78 72 70 62 61 61 68 76 77 86 76 67 68 75 79 73 66 63 59 71 23 87 46
5 8 10 27 44 56 55 54 53 58 65 62 59 56 60 63 69 70 65 66 72 69 63 60 67 73 69 66 72 81 80 65 70 67 61 56 54 49 51 53 9 109 121
348 10 20 19 42 46 52 51 54 61 67 60 54 47 51 48 58 68 71 71 79 80 76 73 68 69 71 72 70 66 77 78 86 79 74 63 54 49 41 37 39 49 70
356 21 27 32 38 43 57 55 45 50 58 55 54 55 49 48 60 62 69 76 86 93 89 76 70 69 68 68 69 76 77 70 64 75 70 58 47 41 38 53 60 59 54
10 26 30 37 41 40 48 52 60 59 65 62 63 61 53 39 35 50 66 76 80 82 88 87 77 73 70 54 62 60 47 30 41 61 68 69 58 34 21 29 64 68 57
27 21 27 50 49 46 45 44 47 46 47 48 56 61 52 40 31 27 39 36 90 83 75 78 78 69 72 68 46 42 42 44 52 55 72 71 44 45 41 18 32 2 73
32 20 27 60 62 60 62 63 57 57 71 71 54 43 38 22 12 20 42 24 10 118 108 88 79 73 46 48 52 45 34 33 47 42 55 48 37 41 33 19 26 8 68
47 29 4 26 55 81 75 60 62 64 63 64 64 77 24 40 44 65 50 24 41 26 61 88 84 80 76 72 70 91 53 37 25 45 50 51 52 63 23 10 44 65 82
58 32 33 35 66 77 83 112 106 62 64 56 48 49 43 43 49 49 48 42 53 64 82 76 77 73 66 55 53 54 62 347 19 55 69 51 35 30 55 39 40 57 24
97 82 60 41 38 35 37 38 40 36 84 27 22 54 53 51 48 56 65 64 46 45 62 74 71 58 51 59 42 34 16 28 31 27 54 41 35 47 22 31 32 103 45
359 38 16 20 33 29 36 49 67 88 97 145 336 46 16 40 49 53 63 72 76 63 56 57 54 58 53 69 54 46 57 74 90 30 349 125 203 109 349 15 13 222 133
151 146 145 133 119 73 76 108 94 98 97 94 71 340 335 42 41 25 39 58 67 70 91 112 128 133 149 154 166 176 167 199 186 180 220 168 239 155 182 231 226 218 223
155 152 138 121 110 113 116 115 124 112 110 96 128 204 121 108 109 101 90 70 102 113 123 137 167 172 179 167 65 357 17 305 322 265 277 289 293 291 252 248 242 238 234
148 145 140 135 129 102 104 113 112 116 127 123 103 31 100 85 111 135 136 150 181 176 179 154 229 223 190 184 200 221 272 265 277 276 267 263 253 256 256 254 258 252 241
136 132 141 141 119 122 108 116 126 137 144 146 148 154 168 152 156 160 168 194 195 222 234 162 219 276 269 239 215 202 211 234 232 208 222 233 242 247 223 239 237 248 231
161 159 156 155 141 155 146 152 124 118 140 153 162 171 172 174 188 194 202 212 195 240 219 206 216 235 250 252 244 237 232 238 224 231 217 221 239 242 230 233 238 244 242
146 153 149 149 151 162 138 147 159 168 170 170 179 173 183 182 201 226 222 198 207 220 249 248 238 243 254 258 254 251 248 261 246 223 215 209 227 227 226 228 232 232 226
147 148 149 133 141 148 158 170 178 170 173 181 171 172 180 196 215 218 227 226 237 247 256 246 252 256 259 256 254 255 249 254 248 238 220 212 228 235 227 230 232 227 236